Theta_e
345 340 338 336 332 330 331 332 328 320 320 331 337 337 336 336 336 333 331 329 329 329 329 329 329 330 329 329 327 324 323 324 326 328 330 331 330 327 326 327 334 335 326
348 342 339 338 335 331 331 333 331 325 319 321 325 329 333 333 331 329 328 328 329 329 329 329 329 329 329 329 327 325 324 325 328 329 330 330 330 328 325 328 336 330 327
346 341 340 339 337 334 333 333 333 329 322 320 322 324 326 327 326 326 327 328 329 329 329 329 329 329 329 329 327 325 324 325 328 330 336 340 337 329 326 326 330 330 328
344 342 339 338 337 335 333 333 333 332 328 323 321 322 323 324 324 326 327 328 329 329 330 330 329 328 328 329 327 326 325 324 326 332 340 340 338 331 330 326 328 328 329
341 338 337 336 336 334 332 332 333 333 331 327 324 323 323 324 325 325 326 326 327 327 329 329 329 328 328 328 329 327 326 325 325 331 339 341 342 336 333 332 327 327 328
338 336 335 334 334 334 332 331 332 332 332 332 330 326 325 324 324 324 325 325 325 325 326 327 327 327 327 327 328 329 328 327 326 337 338 337 339 337 334 334 332 329 328
336 334 333 333 333 334 333 333 332 332 332 333 333 332 330 328 327 327 327 327 327 326 326 326 325 326 326 326 326 326 328 328 330 334 334 336 339 335 333 334 333 332 330
337 336 335 334 333 333 333 334 334 333 333 333 333 333 334 334 333 331 329 329 329 329 329 328 328 328 327 327 326 325 325 326 328 335 335 334 331 326 331 334 335 333 332
339 338 337 337 336 335 333 333 333 333 332 332 332 332 332 333 334 335 335 334 332 332 331 331 331 331 331 331 331 329 328 327 328 335 335 334 332 325 325 334 335 333 333
340 338 337 337 336 336 336 336 336 335 335 335 334 334 334 334 334 335 336 336 336 336 335 335 335 335 334 334 334 334 333 332 331 337 337 335 330 325 325 325 333 334 335
337 337 337 337 336 336 335 335 337 338 337 337 337 337 337 337 337 336 336 336 336 336 336 336 336 335 336 335 335 335 335 336 340 341 341 339 333 328 326 326 326 326 333
338 336 333 332 329 325 323 323 324 331 334 336 338 338 338 338 338 338 338 337 337 337 337 337 337 337 337 337 338 338 338 338 337 338 340 338 335 334 332 330 326 326 327
334 331 325 322 321 318 316 315 317 320 325 329 331 332 334 337 337 337 339 339 338 338 337 337 337 337 336 337 338 337 337 336 339 338 338 336 334 336 336 334 333 329 326
327 323 321 319 316 315 315 314 313 313 316 320 324 325 328 333 336 336 337 337 337 336 335 335 336 334 334 335 335 334 334 336 337 337 337 336 330 333 334 335 335 334 332
323 321 320 317 315 315 313 311 311 311 312 314 318 323 325 329 332 333 334 334 335 335 334 334 333 333 334 334 333 332 331 331 330 330 333 332 328 326 328 332 335 336 335
321 319 318 316 315 313 311 311 311 311 312 313 315 318 322 325 328 329 330 330 330 329 330 330 332 331 331 330 330 329 328 328 328 326 326 327 323 323 326 324 329 334 336
320 318 316 314 314 311 310 311 311 312 313 314 315 316 318 320 322 325 326 327 327 328 327 327 326 325 326 326 325 324 324 324 324 325 325 323 321 322 323 326 324 327 332
318 316 314 314 313 311 310 311 311 311 312 312 313 314 314 315 316 316 317 317 317 317 317 316 316 316 316 316 316 316 316 316 316 318 320 320 320 324 327 326 325 324 326
317 315 314 313 312 310 310 310 310 310 310 310 310 310 310 310 310 310 310 310 310 310 310 310 310 310 310 310 311 311 311 312 312 315 316 320 319 316 317 321 324 326 325
315 314 313 312 311 310 310 310 310 310 310 310 310 309 309 308 308 308 307 307 307 306 305 305 305 305 305 305 305 307 312 314 317 317 314 313 314 314 314 316 319 322 324
314 313 313 312 310 310 309 309 309 310 310 309 307 306 304 303 302 302 302 302 301 301 301 302 302 302 303 302 303 306 313 315 314 316 316 315 313 314 316 316 318 319 320
314 313 312 311 310 309 309 310 309 309 308 306 303 302 301 301 301 301 302 302 302 302 302 302 302 303 305 303 304 309 312 313 313 313 314 311 313 314 314 314 315 317 319
313 312 312 311 310 309 309 309 309 308 305 303 301 301 301 302 302 302 302 302 302 303 303 303 304 304 305 305 304 306 309 310 307 310 312 312 310 309 309 311 311 312 312
312 312 311 310 309 308 308 308 308 307 304 302 301 301 302 302 302 302 302 302 303 303 303 303 303 303 303 303 304 303 303 303 305 306 307 307 307 306 306 307 306 307 307
311 311 311 310 308 308 308 308 307 305 303 301 301 301 301 302 302 302 302 302 302 302 303 303 303 303 302 302 301 301 302 303 301 301 302 303 302 303 304 304 306 305 301
310 309 310 309 308 307 307 307 305 303 301 301 301 301 301 301 301 301 301 301 301 301 301 301 301 301 300 300 299 301 300 299 297 296 297 298 298 301 301 303 303 301 299
Wind_Speed
12 14 14 12 11 10 9 8 7 9 11 12 13 11 10 9 9 8 8 8 8 8 7 5 3 3 3 4 5 7 8 8 8 8 9 10 10 10 10 10 14 7 9
15 15 15 13 12 11 9 8 7 7 9 11 11 12 12 10 8 7 8 9 8 7 6 5 4 2 3 4 5 6 7 8 7 7 8 9 9 9 9 10 16 6 8
14 16 16 13 12 11 11 9 8 8 9 10 11 11 11 9 8 8 8 9 8 8 6 5 4 2 2 2 3 5 6 7 7 7 13 6 5 7 7 8 8 6 8
14 14 16 15 13 13 11 11 10 9 9 9 10 10 10 9 8 8 9 9 8 8 8 6 4 3 2 1 1 2 4 4 5 6 7 5 3 5 5 6 6 5 6
17 17 15 15 14 13 13 12 12 10 9 9 9 10 10 10 9 8 8 8 8 8 8 6 5 4 3 2 2 0 1 2 3 5 1 3 3 1 2 3 4 5 5
15 16 15 14 14 14 13 14 13 12 10 9 9 9 9 9 9 8 7 7 7 7 7 7 6 5 4 4 4 3 3 1 1 1 2 3 3 6 2 1 3 5 6
15 15 14 13 13 12 12 13 12 11 12 10 10 9 9 9 9 9 9 9 9 8 8 7 7 6 5 5 5 5 5 5 2 5 4 5 5 6 6 5 4 6 7
16 14 13 12 11 10 10 11 11 11 11 11 11 11 11 12 12 11 11 11 11 10 9 9 8 8 7 7 7 7 8 8 7 7 7 7 10 9 9 9 9 8 9
16 15 14 13 12 11 11 11 11 11 11 12 12 12 13 13 13 14 14 13 13 12 12 12 11 11 11 11 10 10 9 10 10 10 11 10 14 11 11 11 10 10 10
15 15 14 13 12 12 12 12 12 13 13 13 14 14 14 14 14 14 15 16 15 14 14 14 13 13 14 14 13 13 13 14 14 13 13 12 18 14 14 14 15 14 13
15 14 13 12 11 10 9 9 10 12 14 15 16 16 16 16 14 17 16 15 14 14 13 13 14 14 15 14 15 15 16 15 14 14 15 18 18 16 16 17 18 19 18
16 15 13 12 10 8 8 9 11 13 15 16 17 17 17 17 17 17 16 15 14 13 12 12 12 13 14 15 15 14 15 15 15 15 15 21 19 20 21 20 20 20 20
17 15 14 11 9 8 8 11 13 14 15 15 15 15 16 16 15 14 14 13 13 12 10 9 10 6 9 10 10 11 10 11 10 14 14 18 18 19 23 25 25 22 23
18 16 13 11 7 7 10 12 12 12 12 13 14 13 13 12 12 13 13 12 13 13 13 13 12 12 13 12 12 11 9 7 10 11 13 20 16 18 21 23 24 26 25
20 17 14 10 8 9 10 10 10 10 10 11 11 12 11 13 12 12 13 14 13 12 13 14 15 15 15 14 13 14 14 15 17 17 14 21 23 22 22 22 24 24 26
22 19 15 12 11 8 8 8 8 8 8 8 9 9 10 11 12 12 14 15 14 15 16 15 15 15 16 16 17 19 19 21 22 24 24 22 27 26 26 26 25 23 24
21 19 16 14 11 8 7 7 7 7 6 6 7 7 7 7 8 10 11 12 12 13 13 14 14 15 16 19 21 22 23 24 24 25 24 24 24 24 28 27 27 27 26
23 20 18 16 11 10 8 7 7 6 6 5 5 5 5 5 5 5 6 7 7 8 8 9 10 10 12 14 15 15 16 17 19 20 21 22 19 14 20 27 27 26 27
24 22 20 17 13 12 9 8 7 6 6 6 5 4 4 4 4 4 4 4 5 5 6 7 8 9 11 12 13 13 12 12 13 11 13 12 15 19 23 25 26 24 27
25 23 21 18 16 14 12 10 8 7 7 6 5 4 4 3 3 3 2 2 2 3 5 6 7 9 11 13 14 13 11 9 6 6 9 9 13 16 18 19 20 21 21
27 26 23 21 19 16 14 12 11 11 9 7 6 4 3 2 1 1 1 2 4 5 7 9 10 11 11 13 11 9 4 4 2 2 1 2 3 9 12 14 14 14 19
30 28 25 23 21 18 14 13 13 12 11 8 6 5 3 2 1 2 2 3 4 5 6 7 7 6 7 9 6 6 3 5 3 2 1 4 9 11 12 13 12 13 15
31 31 28 25 23 21 18 17 16 13 10 9 7 6 4 3 2 2 2 3 4 4 5 5 7 8 6 8 9 4 5 4 12 5 4 6 8 9 13 15 15 14 15
32 31 29 28 26 24 21 19 16 12 12 11 10 8 6 4 3 2 2 2 3 4 6 8 9 9 8 7 3 7 4 4 4 8 5 11 14 15 15 13 15 20 17
29 32 33 30 28 26 25 22 20 16 16 14 12 9 7 5 4 3 2 3 4 5 7 8 8 8 7 6 6 6 3 3 4 7 12 12 15 12 12 13 12 6 11
28 31 34 32 29 27 26 25 22 20 17 16 14 11 9 7 5 4 3 3 4 5 6 6 6 7 7 7 6 6 6 5 6 7 10 14 14 9 12 12 13 13 14
Wind_Direction
158 178 173 171 164 151 136 124 111 107 132 155 160 161 160 158 150 146 145 147 150 149 152 143 122 101 86 82 65 56 53 55 63 83 95 100 101 100 103 103 92 134 106
158 174 179 176 168 161 152 144 135 117 120 141 151 157 162 166 162 158 155 155 154 160 163 159 144 123 100 85 65 55 51 54 64 81 89 98 104 107 114 114 127 159 120
152 169 178 178 173 172 173 170 156 146 135 138 149 154 161 166 167 166 161 162 163 165 170 170 159 151 125 82 66 59 48 49 59 74 87 83 118 105 109 123 135 141 127
151 165 178 179 181 182 182 179 183 173 160 146 145 152 160 169 168 171 167 170 170 171 176 182 178 178 189 163 75 56 47 46 59 74 71 125 125 100 104 122 137 150 140
166 178 180 184 187 188 189 189 192 186 179 171 161 159 165 167 173 173 176 176 179 180 185 198 204 198 213 216 212 206 24 36 44 66 123 146 157 204 135 139 163 168 164
170 175 179 184 194 197 196 198 198 195 195 191 185 179 178 177 179 183 188 190 192 193 197 206 219 222 221 231 226 232 250 269 1 279 238 266 179 241 214 193 214 203 195
177 179 182 187 194 199 205 208 207 206 209 208 208 207 205 201 199 198 201 203 206 208 210 215 223 233 234 238 247 247 249 253 240 252 249 245 247 256 256 246 229 229 219
183 187 192 195 198 203 209 213 216 215 216 219 221 223 223 221 218 216 217 217 218 219 220 225 228 233 238 240 248 257 259 259 257 252 252 250 255 260 261 261 246 236 233
191 197 200 203 206 211 217 220 221 225 227 228 231 234 235 233 232 231 231 231 232 230 230 233 236 238 243 245 245 246 253 260 256 254 252 255 264 256 258 260 248 237 242
189 193 195 198 203 213 221 228 233 235 238 238 239 239 238 238 237 238 238 236 237 237 237 239 243 247 248 252 255 255 251 252 256 256 262 256 254 256 253 253 252 256 251
185 185 186 189 194 203 219 228 235 241 243 244 243 242 240 241 235 239 242 245 247 248 248 248 250 254 257 259 258 258 261 258 254 256 261 259 259 260 256 254 253 256 254
187 185 186 186 191 203 227 244 246 245 245 244 246 246 243 240 240 243 246 243 245 250 256 256 256 259 267 266 265 263 266 264 267 264 262 264 269 263 260 254 252 253 256
189 188 188 190 201 220 250 256 252 249 249 250 251 250 244 243 242 239 238 240 238 237 240 248 258 252 264 269 268 272 274 282 285 284 278 269 277 272 267 263 261 252 250
192 197 197 204 221 261 272 266 259 251 249 250 252 249 244 235 236 238 236 240 246 246 256 261 258 275 275 266 257 254 260 262 264 267 279 283 283 276 271 268 265 258 253
203 204 208 216 237 254 261 259 257 252 248 246 244 240 232 230 224 231 238 242 240 247 250 258 265 266 264 260 264 265 268 274 278 280 279 282 287 283 276 269 266 263 255
205 208 212 221 231 245 257 246 243 242 238 237 238 237 232 230 229 229 233 239 246 256 263 257 256 261 266 271 273 276 278 282 285 284 284 285 286 280 276 273 267 264 260
205 211 212 218 224 235 239 232 234 237 232 233 232 229 225 226 229 233 238 245 251 256 260 265 270 272 275 277 280 281 282 284 283 282 283 286 287 286 277 270 268 264 257
209 209 212 216 216 226 222 218 217 218 218 217 219 214 217 218 222 230 238 245 252 256 261 266 271 274 276 277 278 280 280 278 277 278 280 281 280 284 277 271 267 263 258
210 210 213 214 212 219 208 210 207 207 205 203 205 208 213 215 221 229 244 256 267 281 286 288 291 290 292 294 298 298 297 297 294 292 285 289 275 274 276 275 273 272 267
209 210 212 210 213 212 201 202 201 203 202 200 204 208 204 194 194 197 221 264 294 308 317 323 323 323 315 314 316 311 304 297 294 301 290 286 283 280 279 279 277 276 275
210 210 210 210 213 210 198 193 193 195 196 195 192 186 165 151 144 101 12 355 350 345 339 338 337 331 320 314 316 307 296 286 307 317 322 354 305 299 286 279 282 278 271
211 209 209 210 212 204 193 187 188 189 188 186 183 178 168 147 113 66 35 13 3 354 345 339 335 340 341 339 347 320 289 250 291 284 306 334 289 289 288 285 281 271 264
208 208 208 208 209 203 199 201 196 190 189 186 183 177 165 151 124 81 44 33 23 10 359 3 7 13 9 2 12 10 319 296 323 264 323 318 333 329 314 296 294 286 281
205 206 207 210 209 208 204 201 195 182 174 188 184 180 173 156 130 96 67 48 42 37 31 29 28 31 40 20 17 15 360 298 303 286 274 295 309 315 310 307 319 298 281
200 203 207 210 210 211 203 198 192 183 193 192 187 177 167 160 154 145 114 74 58 47 42 40 37 37 33 38 30 21 8 352 301 302 305 315 311 318 316 316 273 325 327
202 203 206 208 209 209 203 199 193 195 194 189 186 178 172 165 157 150 127 93 69 58 55 51 46 41 40 32 29 18 12 8 332 338 308 321 317 321 326 269 246 272 283